Time,TemperatureF,DewpointF,PressureIn,WindDirection,WindDirectionDegrees,WindSpeedMPH,WindSpeedGustMPH,Humidity,HourlyPrecipIn,Conditions,Clouds,dailyrainin,SoftwareType,DateUTC
2013-04-27 00:02:00,49.0,45.0,30.29,SSW,202,2.0,3.0,87,0.00,,,0.00,,2013-04-27 05:02:00,
2013-04-27 00:12:00,49.0,45.0,30.29,SSW,202,2.0,3.0,87,0.00,,,0.00,,2013-04-27 05:12:00,
2013-04-27 00:22:00,49.0,46.0,30.28,SSW,202,2.0,4.0,88,0.00,,,0.00,,2013-04-27 05:22:00,
2013-04-27 00:32:00,50.0,47.0,30.28,SW,236,2.0,5.0,88,0.00,,,0.00,,2013-04-27 05:32:00,
2013-04-27 00:42:00,50.0,47.0,30.28,SW,236,2.0,5.0,88,0.00,,,0.00,,2013-04-27 05:42:00,
2013-04-27 00:52:00,50.0,46.0,30.28,SW,232,1.0,5.0,86,0.00,,,0.00,,2013-04-27 05:52:00,
2013-04-27 01:02:00,50.0,46.0,30.28,SSW,207,4.0,9.0,86,0.00,,,0.00,,2013-04-27 06:02:00,
2013-04-27 01:12:00,50.0,46.0,30.28,SSW,207,4.0,9.0,86,0.00,,,0.00,,2013-04-27 06:12:00,
2013-04-27 01:22:00,50.0,46.0,30.28,SSW,206,3.0,6.0,85,0.00,,,0.00,,2013-04-27 06:22:00,
2013-04-27 01:32:00,49.0,45.0,30.27,SSW,202,4.0,7.0,87,0.00,,,0.00,,2013-04-27 06:32:00,
2013-04-27 01:42:00,49.0,45.0,30.27,SSW,202,4.0,7.0,87,0.00,,,0.00,,2013-04-27 06:42:00,
2013-04-27 01:52:00,49.0,45.0,30.27,SSW,205,3.0,6.0,87,0.00,,,0.00,,2013-04-27 06:52:00,
2013-04-27 02:01:00,47.0,44.0,30.27,South,189,1.0,4.0,88,0.00,,,0.00,,2013-04-27 07:01:00,
2013-04-27 02:11:00,47.0,44.0,30.27,South,189,1.0,4.0,88,0.00,,,0.00,,2013-04-27 07:11:00,
2013-04-27 02:21:00,47.0,45.0,30.27,SSW,209,2.0,4.0,91,0.00,,,0.00,,2013-04-27 07:21:00,
2013-04-27 02:32:00,46.0,43.0,30.26,South,189,0.0,3.0,90,0.00,,,0.00,,2013-04-27 07:32:00,
2013-04-27 02:42:00,46.0,43.0,30.26,South,189,0.0,3.0,90,0.00,,,0.00,,2013-04-27 07:42:00,
2013-04-27 02:52:00,46.0,44.0,30.25,South,188,2.0,5.0,92,0.00,,,0.00,,2013-04-27 07:52:00,
2013-04-27 03:01:00,47.0,44.0,30.24,SSW,192,1.0,3.0,90,0.00,,,0.00,,2013-04-27 08:01:00,
2013-04-27 03:11:00,47.0,44.0,30.24,SSW,192,1.0,3.0,90,0.00,,,0.00,,2013-04-27 08:11:00,
2013-04-27 03:21:00,47.0,44.0,30.24,SSW,192,1.0,3.0,90,0.00,,,0.00,,2013-04-27 08:21:00,
2013-04-27 03:33:00,48.0,45.0,30.24,SSW,192,3.0,5.0,90,0.00,,,0.00,,2013-04-27 08:33:00,
2013-04-27 03:41:00,48.0,45.0,30.24,SSW,192,3.0,5.0,90,0.00,,,0.00,,2013-04-27 08:41:00,
2013-04-27 03:51:00,48.0,45.0,30.24,SSW,200,2.0,4.0,88,0.00,,,0.00,,2013-04-27 08:51:00,
2013-04-27 04:01:00,48.0,45.0,30.24,SSW,200,2.0,4.0,89,0.00,,,0.00,,2013-04-27 09:01:00,
2013-04-27 04:11:00,48.0,45.0,30.24,SSW,200,2.0,4.0,89,0.00,,,0.00,,2013-04-27 09:11:00,
2013-04-27 04:21:00,48.0,45.0,30.24,SSW,200,2.0,4.0,89,0.00,,,0.00,,2013-04-27 09:21:00,
2013-04-27 04:33:00,48.0,45.0,30.24,WSW,249,3.0,6.0,89,0.00,,,0.00,,2013-04-27 09:33:00,
2013-04-27 04:42:00,48.0,45.0,30.24,WSW,249,3.0,6.0,89,0.00,,,0.00,,2013-04-27 09:42:00,
2013-04-27 04:53:00,49.0,45.0,30.24,SW,236,2.0,5.0,86,0.00,,,0.00,,2013-04-27 09:53:00,
2013-04-27 05:02:00,49.0,45.0,30.23,WSW,244,2.0,4.0,87,0.00,,,0.00,,2013-04-27 10:02:00,
2013-04-27 05:12:00,49.0,45.0,30.23,WSW,244,2.0,4.0,87,0.00,,,0.00,,2013-04-27 10:12:00,
2013-04-27 05:22:00,46.0,42.0,30.23,SSE,159,1.0,5.0,87,0.00,,,0.00,,2013-04-27 10:22:00,
2013-04-27 05:32:00,44.0,41.0,30.22,SSE,159,0.0,3.0,90,0.00,,,0.00,,2013-04-27 10:32:00,
2013-04-27 05:42:00,44.0,41.0,30.22,SSE,159,0.0,3.0,90,0.00,,,0.00,,2013-04-27 10:42:00,
2013-04-27 05:52:00,44.0,42.0,30.22,SSE,159,1.0,3.0,92,0.00,,,0.00,,2013-04-27 10:52:00,
2013-04-27 06:02:00,43.0,41.0,30.22,SSE,159,0.0,0.0,93,0.00,,,0.00,,2013-04-27 11:02:00,
2013-04-27 06:12:00,43.0,41.0,30.22,SSE,159,0.0,0.0,93,0.00,,,0.00,,2013-04-27 11:12:00,
2013-04-27 06:22:00,43.0,41.0,30.22,SSE,159,2.0,3.0,93,0.00,,,0.00,,2013-04-27 11:22:00,
2013-04-27 06:32:00,42.0,40.0,30.22,SSE,159,1.0,2.0,93,0.00,,,0.00,,2013-04-27 11:32:00,
2013-04-27 06:42:00,42.0,40.0,30.22,SSE,159,1.0,2.0,93,0.00,,,0.00,,2013-04-27 11:42:00,
2013-04-27 06:52:00,42.0,40.0,30.23,SSE,150,2.0,4.0,94,0.00,,,0.00,,2013-04-27 11:52:00,
2013-04-27 07:01:00,43.0,41.0,30.24,SSE,152,2.0,3.0,94,0.00,,,0.00,,2013-04-27 12:01:00,
2013-04-27 07:11:00,43.0,41.0,30.24,SSE,152,2.0,3.0,94,0.00,,,0.00,,2013-04-27 12:11:00,
2013-04-27 07:22:00,43.0,42.0,30.23,SSE,155,1.0,3.0,95,0.00,,,0.00,,2013-04-27 12:22:00,
2013-04-27 07:32:00,44.0,43.0,30.23,SSE,155,1.0,3.0,95,0.00,,,0.00,,2013-04-27 12:32:00,
2013-04-27 07:42:00,44.0,43.0,30.23,SSE,155,1.0,3.0,95,0.00,,,0.00,,2013-04-27 12:42:00,
2013-04-27 07:52:00,45.0,44.0,30.23,SSE,155,2.0,4.0,96,0.00,,,0.00,,2013-04-27 12:52:00,
2013-04-27 08:02:00,47.0,46.0,30.23,SE,139,2.0,4.0,95,0.00,,,0.00,,2013-04-27 13:02:00,
2013-04-27 08:11:00,47.0,46.0,30.23,SE,139,2.0,4.0,95,0.00,,,0.00,,2013-04-27 13:11:00,
2013-04-27 08:21:00,50.0,48.0,30.23,ESE,117,3.0,5.0,92,0.00,,,0.00,,2013-04-27 13:21:00,
2013-04-27 08:32:00,51.0,48.0,30.22,SE,130,4.0,6.0,90,0.00,,,0.00,,2013-04-27 13:32:00,
2013-04-27 08:42:00,51.0,48.0,30.22,SE,130,4.0,6.0,90,0.00,,,0.00,,2013-04-27 13:42:00,
2013-04-27 08:52:00,52.0,49.0,30.22,SE,132,5.0,6.0,89,0.00,,,0.00,,2013-04-27 13:52:00,
2013-04-27 09:02:00,53.0,49.0,30.22,ESE,113,4.0,7.0,87,0.00,,,0.00,,2013-04-27 14:02:00,
2013-04-27 09:11:00,53.0,49.0,30.22,ESE,113,4.0,7.0,87,0.00,,,0.00,,2013-04-27 14:11:00,
2013-04-27 09:21:00,54.0,49.0,30.21,SE,135,5.0,7.0,83,0.00,,,0.00,,2013-04-27 14:21:00,
2013-04-27 09:32:00,55.0,50.0,30.20,East,98,4.0,7.0,83,0.00,,,0.00,,2013-04-27 14:32:00,
2013-04-27 09:42:00,55.0,50.0,30.20,East,98,4.0,7.0,83,0.00,,,0.00,,2013-04-27 14:42:00,
2013-04-27 09:52:00,56.0,50.0,30.19,East,91,5.0,9.0,79,0.00,,,0.00,,2013-04-27 14:52:00,
2013-04-27 10:01:00,57.0,50.0,30.19,ESE,120,6.0,9.0,76,0.00,,,0.00,,2013-04-27 15:01:00,
2013-04-27 10:12:00,57.0,50.0,30.19,ESE,120,6.0,9.0,76,0.00,,,0.00,,2013-04-27 15:12:00,
2013-04-27 10:22:00,58.0,51.0,30.19,SE,126,6.0,9.0,77,0.00,,,0.00,,2013-04-27 15:22:00,
2013-04-27 10:33:00,59.0,50.0,30.19,SE,126,7.0,10.0,73,0.00,,,0.00,,2013-04-27 15:33:00,
2013-04-27 10:42:00,59.0,50.0,30.19,SE,126,7.0,10.0,73,0.00,,,0.00,,2013-04-27 15:42:00,
2013-04-27 10:52:00,59.0,50.0,30.19,ESE,121,7.0,11.0,73,0.00,,,0.00,,2013-04-27 15:52:00,
2013-04-27 11:03:00,60.0,49.0,30.19,SE,146,9.0,14.0,68,0.00,,,0.00,,2013-04-27 16:03:00,
2013-04-27 11:13:00,60.0,49.0,30.19,SE,146,9.0,14.0,68,0.00,,,0.00,,2013-04-27 16:13:00,
2013-04-27 11:22:00,60.0,49.0,30.19,ESE,117,8.0,13.0,68,0.00,,,0.00,,2013-04-27 16:22:00,
2013-04-27 11:32:00,61.0,50.0,30.19,SE,131,7.0,15.0,67,0.00,,,0.00,,2013-04-27 16:32:00,
2013-04-27 11:42:00,61.0,50.0,30.19,SE,131,7.0,15.0,67,0.00,,,0.00,,2013-04-27 16:42:00,
2013-04-27 11:52:00,61.0,50.0,30.19,SE,128,8.0,16.0,68,0.00,,,0.00,,2013-04-27 16:52:00,
2013-04-27 12:02:00,62.0,52.0,30.18,ESE,113,8.0,16.0,69,0.00,,,0.00,,2013-04-27 17:02:00,
2013-04-27 12:12:00,62.0,52.0,30.18,ESE,113,8.0,16.0,69,0.00,,,0.00,,2013-04-27 17:12:00,
2013-04-27 12:22:00,63.0,51.0,30.17,ESE,123,9.0,16.0,65,0.00,,,0.00,,2013-04-27 17:22:00,
2013-04-27 12:32:00,64.0,49.0,30.16,ESE,121,8.0,17.0,59,0.00,,,0.00,,2013-04-27 17:32:00,
2013-04-27 12:42:00,64.0,49.0,30.16,ESE,121,8.0,17.0,59,0.00,,,0.00,,2013-04-27 17:42:00,
2013-04-27 12:52:00,64.0,51.0,30.15,ESE,115,8.0,15.0,63,0.00,,,0.00,,2013-04-27 17:52:00,
2013-04-27 13:02:00,65.0,49.0,30.14,SE,126,11.0,15.0,56,0.00,,,0.00,,2013-04-27 18:02:00,
2013-04-27 13:12:00,65.0,49.0,30.14,SE,126,11.0,15.0,56,0.00,,,0.00,,2013-04-27 18:12:00,
2013-04-27 13:22:00,65.0,48.0,30.14,ESE,119,9.0,15.0,55,0.00,,,0.00,,2013-04-27 18:22:00,
2013-04-27 13:32:00,65.0,49.0,30.13,SE,127,7.0,16.0,57,0.00,,,0.00,,2013-04-27 18:32:00,
2013-04-27 13:42:00,65.0,49.0,30.13,SE,127,7.0,16.0,57,0.00,,,0.00,,2013-04-27 18:42:00,
2013-04-27 13:52:00,65.0,48.0,30.12,ESE,115,10.0,18.0,55,0.00,,,0.00,,2013-04-27 18:52:00,
2013-04-27 14:02:00,66.0,48.0,30.11,South,175,9.0,14.0,53,0.00,,,0.00,,2013-04-27 19:02:00,
2013-04-27 14:11:00,66.0,48.0,30.11,South,175,9.0,14.0,53,0.00,,,0.00,,2013-04-27 19:11:00,
2013-04-27 14:21:00,66.0,47.0,30.11,ESE,121,9.0,16.0,51,0.00,,,0.00,,2013-04-27 19:21:00,
2013-04-27 14:32:00,67.0,47.0,30.10,SE,134,9.0,16.0,48,0.00,,,0.00,,2013-04-27 19:32:00,
2013-04-27 14:42:00,67.0,47.0,30.10,SE,134,9.0,16.0,48,0.00,,,0.00,,2013-04-27 19:42:00,
2013-04-27 14:52:00,67.0,47.0,30.09,SE,138,9.0,15.0,48,0.00,,,0.00,,2013-04-27 19:52:00,
2013-04-27 15:02:00,67.0,47.0,30.09,SE,128,10.0,15.0,48,0.00,,,0.00,,2013-04-27 20:02:00,
2013-04-27 15:11:00,67.0,47.0,30.09,SE,128,10.0,15.0,48,0.00,,,0.00,,2013-04-27 20:11:00,
2013-04-27 15:21:00,67.0,49.0,30.08,SSE,159,7.0,15.0,52,0.00,,,0.00,,2013-04-27 20:21:00,
2013-04-27 15:32:00,68.0,46.0,30.07,SSE,164,8.0,14.0,46,0.00,,,0.00,,2013-04-27 20:32:00,
2013-04-27 15:42:00,68.0,46.0,30.07,SSE,164,8.0,14.0,46,0.00,,,0.00,,2013-04-27 20:42:00,
2013-04-27 15:52:00,67.0,49.0,30.06,SSE,155,10.0,16.0,52,0.00,,,0.00,,2013-04-27 20:52:00,
2013-04-27 16:02:00,66.0,47.0,30.06,SSE,150,9.0,14.0,51,0.00,,,0.00,,2013-04-27 21:02:00,
2013-04-27 16:12:00,66.0,47.0,30.06,SSE,150,9.0,14.0,51,0.00,,,0.00,,2013-04-27 21:12:00,
2013-04-27 16:21:00,66.0,47.0,30.05,ESE,119,8.0,12.0,50,0.00,,,0.00,,2013-04-27 21:21:00,
2013-04-27 16:33:00,66.0,47.0,30.05,SE,138,7.0,13.0,50,0.00,,,0.00,,2013-04-27 21:33:00,
2013-04-27 16:43:00,66.0,47.0,30.05,SE,138,7.0,13.0,50,0.00,,,0.00,,2013-04-27 21:43:00,
2013-04-27 16:53:00,66.0,46.0,30.04,SE,141,8.0,14.0,49,0.00,,,0.00,,2013-04-27 21:53:00,
2013-04-27 17:02:00,65.0,46.0,30.04,SE,127,8.0,14.0,51,0.00,,,0.00,,2013-04-27 22:02:00,
2013-04-27 17:13:00,65.0,46.0,30.04,SE,127,8.0,14.0,51,0.00,,,0.00,,2013-04-27 22:13:00,
2013-04-27 17:22:00,65.0,48.0,30.04,SSE,153,7.0,12.0,54,0.00,,,0.00,,2013-04-27 22:22:00,
2013-04-27 17:32:00,65.0,47.0,30.04,SE,134,9.0,12.0,52,0.00,,,0.00,,2013-04-27 22:32:00,
2013-04-27 17:42:00,65.0,47.0,30.04,SE,134,9.0,12.0,52,0.00,,,0.00,,2013-04-27 22:42:00,
2013-04-27 17:52:00,63.0,48.0,30.03,SSE,159,9.0,13.0,59,0.00,,,0.00,,2013-04-27 22:52:00,
2013-04-27 18:02:00,62.0,48.0,30.03,SE,141,8.0,13.0,61,0.00,,,0.00,,2013-04-27 23:02:00,
2013-04-27 18:11:00,62.0,48.0,30.03,SE,141,8.0,13.0,61,0.00,,,0.00,,2013-04-27 23:11:00,
2013-04-27 18:22:00,62.0,49.0,30.03,SSE,164,8.0,14.0,62,0.00,,,0.00,,2013-04-27 23:22:00,
2013-04-27 18:32:00,62.0,49.0,30.03,SSE,150,8.0,12.0,62,0.00,,,0.00,,2013-04-27 23:32:00,
2013-04-27 18:42:00,62.0,49.0,30.03,SSE,150,8.0,12.0,62,0.00,,,0.00,,2013-04-27 23:42:00,
2013-04-27 18:52:00,62.0,50.0,30.03,SSE,162,8.0,13.0,65,0.00,,,0.00,,2013-04-27 23:52:00,
2013-04-27 19:01:00,60.0,51.0,30.03,SSW,198,7.0,10.0,72,0.00,,,0.00,,2013-04-28 00:01:00,
2013-04-27 19:11:00,60.0,51.0,30.03,SSW,198,7.0,10.0,72,0.00,,,0.00,,2013-04-28 00:11:00,
2013-04-27 19:21:00,58.0,51.0,30.03,SSW,203,6.0,9.0,77,0.00,,,0.00,,2013-04-28 00:21:00,
2013-04-27 19:32:00,58.0,51.0,30.03,South,189,5.0,12.0,78,0.00,,,0.00,,2013-04-28 00:32:00,
2013-04-27 19:42:00,58.0,51.0,30.03,South,189,5.0,12.0,78,0.00,,,0.00,,2013-04-28 00:42:00,
2013-04-27 19:52:00,57.0,51.0,30.02,SSW,198,4.0,7.0,81,0.00,,,0.00,,2013-04-28 00:52:00,
2013-04-27 20:01:00,56.0,51.0,30.02,South,187,4.0,8.0,82,0.00,,,0.00,,2013-04-28 01:01:00,
2013-04-27 20:11:00,56.0,51.0,30.02,South,187,4.0,8.0,82,0.00,,,0.00,,2013-04-28 01:11:00,
2013-04-27 20:21:00,56.0,51.0,30.02,SSW,196,2.0,6.0,84,0.00,,,0.00,,2013-04-28 01:21:00,
2013-04-27 20:32:00,56.0,52.0,30.01,South,171,2.0,7.0,85,0.00,,,0.00,,2013-04-28 01:32:00,
2013-04-27 20:42:00,56.0,52.0,30.01,South,171,2.0,7.0,85,0.00,,,0.00,,2013-04-28 01:42:00,
2013-04-27 20:52:00,55.0,51.0,30.01,South,169,2.0,5.0,86,0.00,,,0.00,,2013-04-28 01:52:00,
2013-04-27 21:02:00,55.0,51.0,30.00,South,169,2.0,3.0,87,0.00,,,0.00,,2013-04-28 02:02:00,
2013-04-27 21:12:00,55.0,51.0,30.00,South,169,2.0,3.0,87,0.00,,,0.00,,2013-04-28 02:12:00,
2013-04-27 21:22:00,55.0,52.0,30.00,South,173,3.0,5.0,88,0.00,,,0.00,,2013-04-28 02:22:00,
2013-04-27 21:32:00,55.0,52.0,30.00,South,169,3.0,4.0,89,0.00,,,0.00,,2013-04-28 02:32:00,
2013-04-27 21:42:00,55.0,52.0,30.00,South,169,3.0,4.0,89,0.00,,,0.00,,2013-04-28 02:42:00,
2013-04-27 21:52:00,54.0,51.0,30.00,South,169,2.0,4.0,90,0.00,,,0.00,,2013-04-28 02:52:00,
2013-04-27 22:01:00,54.0,51.0,30.00,SSE,167,3.0,5.0,90,0.00,,,0.00,,2013-04-28 03:01:00,
2013-04-27 22:11:00,54.0,51.0,30.00,SSE,167,3.0,5.0,90,0.00,,,0.00,,2013-04-28 03:11:00,
2013-04-27 22:21:00,53.0,50.0,30.00,SSE,164,2.0,4.0,91,0.00,,,0.00,,2013-04-28 03:21:00,
2013-04-27 22:33:00,53.0,51.0,30.01,SSE,159,4.0,7.0,92,0.02,,,0.02,,2013-04-28 03:33:00,
2013-04-27 22:43:00,53.0,51.0,30.01,SSE,159,4.0,7.0,92,0.02,,,0.02,,2013-04-28 03:43:00,
2013-04-27 22:53:00,53.0,51.0,30.00,SE,144,2.0,4.0,93,0.03,,,0.03,,2013-04-28 03:53:00,
2013-04-27 23:02:00,52.0,50.0,29.99,SE,139,2.0,4.0,94,0.04,,,0.04,,2013-04-28 04:02:00,
2013-04-27 23:13:00,52.0,50.0,29.99,SE,139,2.0,4.0,94,0.04,,,0.04,,2013-04-28 04:13:00,
2013-04-27 23:22:00,52.0,50.0,29.98,SE,139,1.0,3.0,94,0.03,,,0.04,,2013-04-28 04:22:00,
2013-04-27 23:32:00,52.0,51.0,29.98,East,84,2.0,5.0,95,0.03,,,0.05,,2013-04-28 04:32:00,
2013-04-27 23:42:00,52.0,51.0,29.98,East,84,2.0,5.0,95,0.03,,,0.05,,2013-04-28 04:42:00,
2013-04-27 23:52:00,52.0,51.0,29.98,East,88,4.0,6.0,95,0.02,,,0.05,,2013-04-28 04:52:00,